Theta_e
308 308 309 309 309 309 309 309 309 309 309 309 310 310 310 310 311 311 311 311 311 312 312 312 312 312 312 311 311 310 310 310 312 315 316 315 317 317 316 317 316 312 308 308 313 316 316 316 317 318 318 318 317 315 314 316 316 316 316 314 313 314 316 317 318 318 318 318 319 319 318 319 317 322 324 324 325 324 335 340 339 339 341 341 342 348 351 349
308 308 308 309 309 309 308 309 309 309 309 309 309 310 310 310 310 311 311 311 311 312 312 312 311 311 311 310 310 309 309 312 314 316 316 314 315 317 315 315 316 311 307 310 314 316 316 315 318 319 318 318 316 315 315 315 316 315 316 315 314 316 317 319 319 318 319 317 319 319 319 319 318 321 324 325 325 324 337 340 340 342 344 346 347 348 350 349
308 308 308 308 308 308 308 309 309 309 309 309 309 309 310 310 310 311 311 311 311 312 312 311 311 311 311 311 310 308 310 314 316 319 319 316 316 316 314 312 312 308 307 312 314 316 317 316 319 319 318 317 316 315 314 315 316 315 316 316 316 317 317 318 319 319 318 317 318 319 318 318 318 319 324 326 326 325 335 340 339 339 341 346 346 346 349 349
308 308 308 308 308 308 308 309 309 309 308 308 309 309 309 309 310 310 311 311 311 312 312 311 311 311 311 311 309 308 312 316 319 321 319 317 315 315 315 312 309 305 307 312 314 317 318 317 319 319 318 317 316 315 314 314 315 317 316 316 317 317 317 318 318 318 319 318 317 318 318 318 318 318 322 324 329 332 336 338 337 337 337 344 346 345 350 349
307 307 308 308 308 308 308 308 309 309 308 308 308 309 309 309 309 310 310 311 311 312 312 311 311 311 311 310 308 310 315 319 322 321 316 315 314 313 314 311 307 306 307 310 314 316 318 319 318 317 318 318 316 315 315 314 315 317 317 316 317 317 317 317 318 318 318 318 317 317 317 317 318 319 319 322 329 333 335 334 335 335 335 341 345 346 349 348
307 307 307 308 308 308 308 308 308 308 308 308 308 309 309 309 309 310 310 311 311 311 311 310 310 310 310 308 308 312 316 318 320 320 315 314 314 312 310 309 306 307 309 311 313 316 317 317 317 317 317 317 316 315 314 314 315 316 317 316 317 316 316 317 318 318 317 317 317 317 318 317 319 318 318 320 325 331 331 332 334 334 335 340 344 345 348 348
307 307 307 307 307 308 308 308 308 308 308 308 308 308 309 309 309 309 310 310 311 311 310 310 310 310 310 309 312 315 316 318 319 318 316 314 315 310 308 308 305 308 311 311 313 316 316 316 317 317 316 317 315 314 315 315 315 316 316 316 317 317 316 317 318 318 317 316 316 317 317 317 317 317 319 318 323 331 329 330 334 335 336 338 343 345 347 348
307 307 307 306 307 307 307 308 308 308 308 308 308 308 308 309 309 309 309 309 310 310 310 310 310 310 308 310 316 317 318 321 320 317 315 315 315 310 307 308 306 309 313 313 315 316 315 315 316 315 316 316 314 314 315 315 315 315 316 316 317 317 317 317 317 318 317 316 316 316 316 317 317 317 318 318 324 332 330 331 334 335 336 335 340 345 346 347
306 307 307 306 307 307 307 307 307 307 308 308 308 308 308 308 308 308 308 308 309 309 310 310 310 309 308 312 316 318 320 322 321 316 313 315 315 308 307 309 308 310 313 314 316 315 314 315 315 315 315 315 315 315 314 314 314 315 316 316 317 316 317 317 317 317 317 317 316 316 316 316 318 317 317 317 322 328 329 331 333 335 336 332 337 345 346 347
306 306 306 306 307 307 306 306 307 307 307 308 308 308 308 308 307 307 307 307 308 308 309 309 310 309 310 314 316 318 320 320 323 319 315 315 315 310 309 312 310 311 313 315 316 315 314 314 315 315 314 315 315 314 314 314 314 315 316 316 316 316 317 317 317 318 316 317 316 315 316 316 317 316 317 318 319 322 326 331 332 334 334 333 336 343 346 346
306 306 306 306 306 306 306 306 307 307 307 307 308 307 307 307 307 306 305 306 306 307 308 309 309 309 312 315 315 317 317 317 320 321 318 316 314 312 311 314 311 311 314 315 315 315 314 313 314 313 313 314 313 314 314 314 315 315 316 316 316 316 316 316 316 317 317 316 316 316 315 316 317 316 317 318 318 321 324 328 332 332 334 335 335 341 344 345
306 305 306 306 305 306 306 306 307 307 307 307 307 307 305 305 306 306 306 305 305 306 307 308 308 310 314 315 315 316 314 316 316 319 321 316 315 314 313 315 314 313 315 315 316 314 314 314 314 313 313 314 313 313 314 315 315 315 315 315 315 316 316 316 316 317 317 316 316 315 314 315 316 316 317 318 318 320 322 324 327 331 335 336 336 339 342 344
306 305 306 306 305 305 305 306 306 306 307 307 307 307 304 302 304 306 306 306 306 306 307 308 309 312 315 316 316 314 314 316 315 318 321 317 316 315 315 316 315 315 315 316 316 315 314 314 314 314 313 313 314 314 314 315 315 314 315 315 315 314 314 315 316 316 316 316 316 316 310 311 316 316 318 318 317 319 320 322 322 323 331 335 337 339 340 343
305 305 306 305 305 305 305 305 306 306 306 306 306 306 303 300 301 305 306 306 306 306 307 308 310 314 317 318 316 315 316 316 314 315 319 319 317 316 316 317 316 315 314 315 315 315 314 314 314 313 313 314 314 314 315 314 314 314 314 313 314 311 311 316 316 315 316 315 317 315 309 310 316 316 318 318 318 319 319 322 322 323 327 332 335 337 338 343
305 305 305 305 305 305 306 305 305 306 305 306 305 303 302 302 302 305 307 307 307 307 308 309 311 316 319 320 318 319 318 316 314 314 316 319 318 317 316 316 316 315 314 315 315 315 315 314 313 313 313 314 314 314 314 314 315 314 312 311 312 310 311 315 316 316 316 315 316 314 310 312 316 316 317 318 318 320 321 321 321 323 329 332 333 334 336 342
305 305 305 305 305 305 306 305 305 305 305 304 302 301 304 304 305 307 309 309 309 310 310 313 315 317 319 320 318 320 320 318 316 314 315 317 319 318 316 316 315 315 315 315 315 315 315 314 313 313 312 312 313 313 313 315 314 314 312 309 310 310 310 313 315 317 316 316 316 314 312 313 315 316 318 318 317 319 321 322 321 323 332 333 333 336 339 343
305 305 305 305 305 305 305 305 305 305 304 302 299 302 308 308 307 308 310 311 311 312 313 316 319 319 320 320 318 318 318 318 316 315 314 315 317 318 317 316 315 315 314 314 314 315 315 314 313 312 313 312 313 314 313 311 311 312 312 310 310 311 310 310 313 316 316 315 315 315 314 313 316 317 317 318 318 318 320 322 321 322 331 335 337 339 340 341
305 305 305 305 305 305 305 304 304 304 303 300 299 306 312 311 309 309 311 313 313 314 315 317 318 317 319 320 319 317 317 318 316 314 314 315 317 317 317 316 314 314 313 312 314 313 313 314 313 312 312 312 313 314 312 311 311 311 311 310 311 310 310 310 312 315 317 315 315 315 314 314 316 316 317 318 318 318 320 322 323 320 326 335 339 339 337 337
305 305 305 305 305 304 304 304 304 303 302 298 300 309 314 312 311 312 313 315 317 319 320 320 319 318 317 318 318 317 316 318 316 315 314 315 317 317 317 315 314 313 312 312 313 312 313 312 312 311 312 313 314 314 313 313 313 313 312 312 310 309 310 312 314 316 316 316 315 315 314 315 316 316 316 318 319 320 319 322 324 321 323 328 336 339 337 337
304 304 304 304 304 303 304 303 302 302 302 301 302 310 316 317 319 319 318 317 318 321 318 318 319 318 316 316 317 316 316 316 316 316 316 317 317 316 315 314 313 312 312 312 313 313 312 311 312 311 312 314 315 316 316 316 314 314 314 313 312 310 310 314 316 316 317 316 314 316 316 315 316 316 317 318 320 319 320 323 323 321 322 324 334 339 337 339
303 303 304 303 303 302 302 301 300 301 302 303 305 311 314 314 315 317 317 316 317 318 315 314 316 317 317 316 316 317 316 316 316 316 317 317 316 315 314 312 312 312 312 313 313 313 311 311 312 312 314 315 316 317 317 317 316 315 314 313 312 312 311 314 317 316 317 316 314 316 315 315 317 316 317 319 319 320 320 322 323 322 321 323 334 336 336 339
303 303 304 303 302 301 300 300 300 301 301 304 308 311 309 311 312 313 311 311 312 314 314 315 314 315 316 316 316 316 316 316 316 315 316 317 315 313 312 312 311 312 313 313 313 312 311 311 312 314 315 316 316 318 317 317 317 316 315 313 312 312 313 314 317 317 318 315 315 317 315 314 316 316 318 318 318 322 321 321 322 323 322 324 333 335 335 337
304 304 303 303 302 301 300 299 299 299 301 305 311 311 309 311 311 312 311 311 311 312 312 313 313 313 314 316 316 315 315 316 316 315 316 317 314 312 312 311 312 312 313 312 312 312 311 312 314 314 315 317 317 317 318 317 316 316 316 313 311 314 312 311 314 317 318 316 316 317 315 315 317 317 318 318 318 319 320 320 320 323 322 324 333 335 334 337
304 304 304 304 303 301 300 298 298 301 304 307 309 309 309 310 310 311 312 312 312 312 313 312 313 313 314 315 316 315 314 316 316 315 316 316 313 312 312 311 311 311 312 312 313 313 313 314 315 314 315 317 316 318 318 317 315 316 317 316 313 314 313 312 315 318 318 318 319 317 314 313 316 316 316 317 318 318 319 319 319 322 321 326 337 338 336 338
304 304 304 304 303 303 299 299 304 309 311 312 312 311 311 310 311 312 313 314 314 314 315 316 313 314 315 316 316 315 314 315 315 316 317 316 314 313 312 312 312 311 311 311 313 314 315 317 317 316 315 316 317 317 318 317 315 315 317 317 316 315 315 314 316 316 313 313 317 316 311 311 315 316 317 318 318 319 319 319 321 322 319 327 337 339 337 338
304 304 304 304 304 302 300 305 312 311 310 312 313 312 312 312 312 312 316 318 316 315 317 317 314 314 315 316 315 316 316 316 315 316 317 317 315 314 312 313 312 312 312 313 313 314 315 317 316 316 316 316 316 316 318 318 314 312 314 317 316 316 315 315 316 313 310 311 317 318 313 311 313 314 318 319 318 319 318 320 322 320 321 330 335 337 336 335
303 304 304 304 304 303 305 308 307 304 306 309 310 311 311 311 312 314 319 319 316 315 316 315 314 315 315 317 317 316 315 316 315 315 317 317 316 314 313 313 313 312 314 314 314 315 316 316 316 316 316 316 315 315 316 317 313 311 315 316 314 314 314 315 315 312 312 314 318 319 315 312 310 313 320 319 319 320 318 321 320 321 332 337 336 335 333 334
303 304 303 304 304 303 305 307 305 305 306 308 309 310 309 310 312 315 319 317 314 314 318 317 317 316 317 318 317 316 316 316 315 314 316 317 316 315 313 313 313 313 314 314 313 315 317 316 316 316 315 315 315 315 315 315 314 313 315 317 315 315 315 315 314 312 313 315 313 315 315 313 310 313 319 319 318 318 318 320 318 323 334 337 335 334 333 335
303 303 303 303 303 302 305 304 307 309 306 307 309 309 310 310 312 316 319 318 315 314 316 317 317 317 318 318 318 317 315 315 316 315 316 317 316 316 313 313 313 314 314 315 315 316 316 315 316 316 315 315 314 314 314 315 316 315 315 316 316 316 315 315 315 312 313 315 313 313 315 313 312 312 315 316 317 317 319 321 319 322 332 334 334 334 334 333
302 302 302 302 303 305 308 307 309 311 309 309 309 310 311 311 313 317 319 319 313 312 315 316 316 317 317 318 318 317 315 315 316 315 316 317 316 315 314 314 313 314 314 315 315 316 315 316 315 316 315 315 314 315 314 314 316 316 314 315 314 316 315 314 315 312 311 314 314 313 314 315 316 315 313 316 318 320 321 320 318 322 332 335 334 332 334 332
301 301 302 302 304 307 309 311 312 313 313 312 310 310 310 310 314 316 319 318 310 311 313 314 315 316 316 317 318 317 315 316 316 316 317 317 316 315 315 315 313 313 314 313 313 314 315 315 315 315 315 315 314 314 315 315 316 315 314 314 314 314 312 311 311 311 312 313 312 312 314 314 315 316 317 320 321 321 323 322 320 321 331 334 331 330 333 332
302 302 302 303 304 305 306 307 309 311 313 312 311 310 308 310 313 314 316 314 311 312 312 313 315 315 316 317 317 316 315 316 316 317 317 317 316 315 314 314 313 312 312 312 313 313 313 314 315 315 315 314 314 313 315 316 315 315 313 313 313 311 310 310 309 309 310 311 312 313 313 314 315 319 321 322 322 325 326 327 324 321 328 330 328 332 335 332
302 302 303 304 304 303 304 306 309 312 313 312 311 310 310 311 313 313 313 312 311 313 312 313 315 315 317 317 316 317 315 315 316 317 317 317 317 316 314 314 313 312 312 312 312 311 312 313 314 315 315 315 314 313 313 314 314 314 312 311 312 311 312 312 311 311 312 312 312 314 315 316 316 320 323 325 325 327 327 327 329 327 329 330 329 332 333 332
303 304 305 306 307 305 305 310 313 313 314 313 310 310 312 313 314 313 313 312 312 313 312 313 313 314 316 316 317 317 315 315 316 317 317 317 316 316 315 313 313 313 313 312 312 311 311 312 313 314 314 314 314 314 314 315 313 314 313 313 312 312 313 314 312 313 313 311 311 313 317 318 318 320 325 326 325 325 325 325 327 329 329 329 331 332 333 333
304 307 307 307 311 310 309 312 314 314 315 314 309 309 312 313 313 312 312 312 311 312 312 311 312 313 314 315 317 317 316 316 316 316 317 316 315 316 314 314 313 313 313 312 313 312 310 311 314 315 315 314 314 315 316 316 313 315 314 313 313 314 314 314 315 315 313 312 312 314 317 321 323 324 324 324 323 323 324 323 324 327 326 325 328 332 332 333
306 312 312 311 315 315 313 313 314 314 315 312 309 309 310 311 311 310 311 311 311 311 311 311 311 310 310 313 315 315 316 317 317 317 318 316 315 315 314 313 312 312 313 312 313 313 311 312 316 315 314 314 315 314 314 315 315 317 313 310 313 318 317 316 316 316 314 313 315 318 320 322 323 323 323 323 324 324 323 323 326 328 327 327 327 331 332 332
309 315 316 316 316 314 313 312 313 314 314 312 309 308 308 309 309 309 310 310 310 310 310 311 312 310 309 311 312 314 315 317 317 317 318 318 315 314 314 314 313 313 314 313 314 316 314 313 317 316 315 315 314 315 314 314 316 315 312 312 314 316 318 317 315 315 315 314 316 318 319 317 316 320 322 321 325 325 324 326 329 329 329 331 331 332 332 332
311 314 315 315 313 312 312 311 311 312 312 310 309 309 308 307 308 308 309 309 310 310 310 310 312 311 309 308 310 313 314 316 316 316 318 319 318 317 315 314 314 313 313 314 314 317 316 314 316 317 315 315 315 315 314 314 315 316 315 317 315 313 314 314 313 315 316 316 314 312 316 319 317 319 322 322 325 326 324 327 330 330 330 330 331 332 331 331
312 315 314 314 313 312 313 314 313 313 312 310 308 308 307 306 306 307 307 308 308 310 309 310 312 312 310 309 309 312 313 314 317 319 320 322 321 321 319 317 316 315 314 314 314 316 318 316 315 318 317 315 315 314 311 313 315 315 316 317 316 315 315 315 315 315 315 317 316 311 317 326 324 323 326 325 325 326 326 328 329 330 330 330 331 331 330 330
315 316 314 313 313 313 314 315 315 313 312 311 308 307 306 306 306 306 306 307 308 310 310 310 312 311 311 310 309 311 312 314 317 319 321 322 321 322 321 318 318 316 315 314 314 315 318 317 317 319 316 314 314 314 313 313 313 314 313 314 314 315 316 317 317 313 311 316 315 311 320 329 325 325 328 327 326 327 329 331 330 330 330 330 330 330 330 330
315 315 313 313 313 313 313 315 314 313 312 311 309 307 306 305 306 306 307 308 307 309 310 310 311 311 310 311 310 311 313 314 316 317 320 322 322 323 322 319 317 317 316 316 315 315 317 317 318 318 315 313 314 315 315 314 314 314 312 312 314 314 314 314 316 314 312 314 313 315 325 329 324 324 327 326 327 329 329 331 330 330 330 329 330 330 329 329
313 314 313 313 312 312 312 313 313 313 312 312 310 308 307 307 306 306 307 308 308 309 309 309 310 309 309 310 310 311 312 312 315 317 319 322 322 321 320 319 318 316 317 317 317 319 320 318 317 316 315 315 317 317 316 316 315 315 314 314 314 314 313 312 314 314 312 313 313 318 328 329 323 323 327 327 327 328 328 328 328 328 328 328 328 329 329 328
314 313 312 313 313 312 312 312 312 312 312 311 310 309 309 308 307 307 307 307 308 308 308 309 309 309 309 310 310 311 312 311 314 317 318 319 318 317 317 317 316 316 318 319 319 320 321 319 318 319 317 316 318 317 316 316 315 314 314 314 315 314 313 313 314 314 313 314 313 318 326 328 322 322 328 328 327 327 327 328 326 326 327 326 325 326 327 328
313 312 311 312 312 311 313 312 311 311 311 311 310 310 309 308 308 308 307 307 307 308 309 308 309 309 309 310 310 310 311 312 312 315 316 316 315 317 316 315 316 316 317 320 319 317 318 319 320 322 322 319 318 318 317 316 315 313 315 315 315 315 316 317 318 317 316 314 311 316 325 326 322 323 326 327 326 326 326 327 326 326 327 326 325 325 325 326
313 312 310 311 311 311 312 312 311 311 311 312 311 310 310 310 309 308 307 307 307 308 309 309 309 309 308 309 309 309 310 311 311 313 316 316 316 316 315 315 316 314 316 321 321 317 317 319 319 321 322 321 321 320 319 318 316 315 316 315 314 315 316 318 318 317 317 315 313 318 326 326 323 325 326 326 326 326 326 326 324 325 325 324 324 324 324 325
312 310 308 309 310 310 311 311 311 311 311 312 311 309 310 309 309 309 309 308 308 308 309 309 309 309 309 310 310 309 309 310 310 311 315 317 316 315 316 315 314 315 319 323 321 318 319 320 320 320 320 319 319 319 318 317 316 315 314 315 317 317 316 317 316 316 319 322 322 324 328 327 325 326 326 326 326 326 325 324 323 323 323 323 323 323 322 323
310 308 307 308 309 310 311 311 310 310 311 311 310 310 310 310 309 310 309 308 308 307 308 308 308 309 309 310 311 311 309 310 310 310 313 316 316 316 316 315 315 319 324 321 316 317 318 318 320 321 319 317 318 317 316 315 316 315 314 315 318 319 319 318 316 316 318 320 323 327 328 327 326 325 325 326 325 325 324 323 323 322 322 321 321 320 320 320
308 308 308 308 309 309 310 310 311 310 310 311 311 311 311 311 310 310 309 309 310 309 309 309 309 308 309 309 310 310 310 311 311 312 315 317 316 315 315 314 316 320 321 317 314 316 317 317 318 320 318 316 316 316 316 315 316 315 314 315 317 318 323 324 322 322 319 318 323 328 327 326 325 323 323 324 324 323 323 322 322 321 319 318 318 317 316 316
307 308 308 309 308 308 310 310 310 310 309 310 312 311 310 311 310 309 309 310 311 310 310 312 311 309 309 310 311 313 315 316 317 318 318 318 317 316 317 318 317 317 316 316 317 318 318 317 318 318 318 317 316 316 315 314 315 315 315 316 317 319 323 326 326 326 324 323 325 326 326 325 323 322 322 321 321 321 321 321 320 319 317 316 315 314 313 313
307 308 309 310 308 306 309 310 309 310 309 309 310 310 309 310 309 308 308 309 310 309 309 312 311 310 311 312 312 313 314 316 317 317 316 317 317 317 317 317 316 317 316 316 318 319 317 317 318 318 318 318 316 316 315 314 315 315 316 315 316 319 322 324 326 327 326 327 326 324 324 323 321 319 319 318 318 318 319 319 318 316 315 313 313 312 312 311
308 307 308 310 308 304 306 308 308 309 308 308 308 308 309 309 308 308 309 308 309 309 308 309 310 311 312 311 310 310 310 311 313 313 312 314 314 314 315 314 315 317 318 320 322 322 319 317 317 317 317 317 316 315 316 315 315 316 317 316 315 318 322 323 325 325 325 325 323 322 322 320 318 317 316 316 315 316 317 316 315 314 312 311 310 310 310 310
308 309 308 309 306 304 305 306 306 307 307 307 307 306 307 307 307 308 309 308 308 308 308 308 309 310 310 309 308 308 308 309 310 310 310 310 311 312 312 312 313 315 318 321 321 323 322 319 317 317 317 317 315 314 315 316 316 316 318 318 317 318 320 321 323 323 323 323 322 321 321 319 317 315 315 315 314 315 314 313 312 311 309 309 309 308 308 308
Wind_Speed
13 13 13 13 12 12 12 12 11 11 11 11 11 12 12 13 13 12 12 13 13 14 14 14 14 15 15 16 16 17 18 19 19 16 18 18 13 13 14 13 11 10 10 11 12 14 15 16 16 17 14 10 8 8 11 10 8 7 6 7 8 8 10 10 11 8 5 5 5 7 6 4 8 3 6 5 9 10 11 18 12 14 12 11 12 19 24 20
13 13 13 13 13 13 12 12 11 11 11 12 12 12 12 12 13 12 12 13 13 14 14 14 14 14 15 16 16 16 17 19 20 20 25 23 16 15 15 16 15 12 12 14 16 18 16 14 16 16 11 8 8 9 10 9 9 8 7 8 9 10 11 12 12 8 4 8 6 4 1 6 7 2 2 4 10 11 10 15 12 14 12 12 14 16 20 19
13 14 13 13 14 13 13 13 12 12 11 12 12 11 11 12 12 12 13 12 12 13 14 14 14 15 15 15 15 14 16 19 17 17 20 17 17 22 18 15 15 13 18 18 17 19 16 15 16 14 10 9 8 10 11 9 9 9 8 8 9 12 14 15 13 9 4 7 6 3 1 4 3 1 2 3 9 9 7 11 10 9 10 12 12 11 13 17
14 14 14 14 14 14 14 13 13 13 12 12 11 11 11 12 12 12 13 13 13 13 14 14 14 15 15 15 14 13 15 16 8 2 2 3 11 19 19 17 14 14 21 20 17 17 17 16 15 13 11 9 9 11 11 10 8 8 9 9 11 13 14 16 11 8 7 5 5 5 3 4 4 3 2 3 4 2 2 7 11 9 11 13 12 11 10 13
14 14 14 14 14 14 14 14 14 13 13 12 12 11 11 12 12 12 13 13 13 13 14 14 15 15 15 15 11 12 12 6 2 6 6 4 6 10 15 16 13 15 21 20 17 17 17 16 14 13 10 9 10 10 11 13 10 7 11 13 15 16 14 13 7 6 7 5 3 5 7 7 3 2 5 7 6 4 3 7 13 12 12 13 13 13 11 12
14 14 14 15 15 15 15 15 14 14 14 13 12 12 11 11 11 12 12 13 13 13 13 13 14 15 15 14 11 11 8 3 3 5 8 5 3 5 9 12 13 15 18 18 17 16 16 15 13 12 9 10 12 12 11 14 13 9 10 14 16 17 16 13 9 4 3 5 6 7 12 8 6 6 8 10 7 8 11 8 13 13 13 12 12 13 13 13
14 14 14 14 14 14 14 14 14 14 14 14 13 12 12 12 11 11 11 12 12 12 13 13 14 14 14 14 12 8 8 10 7 5 9 4 3 4 7 10 13 15 15 17 16 14 13 15 14 11 10 10 12 13 13 14 14 12 11 14 15 17 16 14 11 3 2 6 10 10 12 6 5 9 5 8 5 11 11 11 15 13 14 12 10 12 12 13
13 14 14 14 14 14 14 14 14 15 14 14 14 13 12 12 11 11 11 11 11 12 12 12 13 13 12 14 10 7 9 10 4 10 8 4 4 5 7 10 13 15 15 17 16 14 13 15 15 12 11 11 11 13 14 14 14 14 14 14 14 15 15 14 13 8 4 6 8 10 12 6 6 11 6 10 5 20 17 15 17 14 14 12 10 11 12 12
14 14 14 14 14 15 15 15 15 14 15 15 15 14 13 12 12 11 11 11 11 11 11 12 12 10 9 9 8 7 5 2 8 6 4 6 5 7 10 10 14 16 15 16 16 15 12 12 14 13 12 12 13 13 14 13 11 12 14 15 15 15 15 11 9 10 9 7 7 10 12 9 8 11 9 9 5 16 18 17 18 16 17 14 12 12 11 11
14 14 14 14 15 15 15 15 15 15 15 14 15 15 14 12 12 12 11 11 10 10 11 11 11 9 9 9 9 7 2 3 5 3 5 8 8 10 12 12 15 17 15 15 15 15 12 11 12 11 12 12 12 13 14 13 9 10 16 16 17 17 15 13 10 11 11 10 12 11 11 12 10 11 7 6 12 11 15 18 18 16 16 15 13 12 9 9
14 14 15 15 15 15 15 15 15 15 15 15 15 15 14 13 12 12 12 11 10 9 9 10 8 8 10 9 8 7 2 2 2 5 7 11 12 13 13 13 15 16 15 13 14 15 14 14 12 9 8 9 12 14 13 14 13 13 17 14 13 15 16 17 14 11 10 11 13 12 12 13 11 12 9 9 14 9 10 14 19 17 15 14 12 12 6 6
14 15 15 15 15 15 15 15 15 15 15 15 15 15 14 13 13 12 12 11 10 7 6 8 5 6 10 9 10 15 11 9 6 4 8 12 13 12 12 13 15 15 15 13 12 14 15 15 14 11 8 8 10 11 10 13 14 15 16 13 12 14 14 18 15 11 11 10 12 12 12 12 11 14 13 13 15 9 10 12 16 16 15 15 11 9 7 8
15 15 15 15 15 15 15 15 15 15 15 16 15 15 16 15 14 13 12 11 9 7 7 6 4 7 10 6 13 23 20 15 10 6 8 11 12 12 11 13 14 14 15 14 12 11 12 14 13 12 11 10 9 7 7 9 11 13 14 11 11 12 11 15 15 14 14 10 11 11 8 10 12 16 14 13 17 12 12 12 12 11 12 15 12 11 11 11
15 15 15 15 15 15 16 16 16 16 16 16 16 16 17 18 16 14 12 11 8 6 6 5 5 7 7 9 19 23 17 13 11 9 10 12 13 13 13 12 12 13 14 14 13 9 10 13 12 10 11 11 10 10 10 8 8 11 12 10 9 9 9 13 15 15 15 11 12 12 7 8 12 17 16 13 15 12 11 12 11 10 11 13 12 12 12 11
15 15 15 15 16 16 16 16 16 16 17 17 16 16 17 18 16 13 12 10 7 5 5 5 7 7 6 12 18 18 14 14 13 13 13 13 14 13 13 13 12 13 13 12 12 10 9 11 9 8 9 12 12 12 10 7 8 8 9 9 9 9 10 13 15 18 17 13 15 14 8 9 12 15 16 15 14 12 11 12 11 9 12 14 10 10 10 10
16 16 16 16 16 16 16 16 16 17 17 17 17 17 16 16 14 11 8 6 5 3 3 5 9 9 7 7 6 7 12 16 16 15 15 15 15 13 13 13 11 12 12 11 11 10 8 8 8 8 10 11 11 10 8 7 8 8 8 9 10 11 10 11 14 18 20 15 16 17 10 8 10 14 16 18 17 15 14 12 13 11 12 14 8 7 6 6
16 16 16 16 16 16 16 17 17 17 18 18 17 16 14 14 11 7 5 4 4 4 6 8 8 8 8 9 8 7 13 15 15 16 17 17 16 14 13 11 10 11 12 11 12 10 8 8 7 8 9 9 9 9 8 8 8 7 8 8 11 14 11 10 13 15 20 17 16 17 13 10 11 15 15 18 20 17 14 13 15 13 12 12 7 6 6 3
16 17 16 17 17 17 17 17 18 18 19 18 16 15 15 13 9 7 5 3 3 6 10 10 8 5 7 10 12 12 11 12 12 12 17 17 16 16 12 9 9 10 10 9 11 10 8 7 7 7 8 9 10 9 9 10 10 9 9 9 10 13 14 13 13 13 20 19 16 16 14 14 15 16 16 17 22 19 14 13 14 12 12 12 11 8 7 5
17 17 17 17 17 17 17 17 18 18 20 19 15 14 14 9 6 7 9 7 5 4 6 6 8 6 6 7 12 12 6 7 9 10 15 16 15 16 12 9 9 10 10 7 9 11 8 6 8 8 8 10 12 12 12 13 15 14 12 10 10 11 13 14 15 12 18 18 15 14 13 15 17 18 17 12 12 13 12 11 11 8 10 10 13 11 8 11
17 18 18 18 18 18 18 18 19 18 19 18 16 13 9 5 4 4 7 9 10 10 11 8 12 12 13 11 11 10 4 7 7 9 13 14 13 13 11 10 10 10 10 9 9 10 9 7 8 10 11 12 14 15 15 16 18 18 13 11 13 12 11 13 16 14 16 14 13 15 15 16 15 17 17 7 9 8 10 10 10 8 8 9 8 12 7 11
18 18 18 18 19 19 19 19 19 18 18 16 14 9 7 7 7 4 3 8 13 17 18 17 15 16 17 16 14 10 7 8 10 10 13 14 13 11 9 11 11 9 10 12 9 8 9 9 10 13 14 15 15 15 15 16 18 17 13 13 13 12 11 14 16 14 13 10 10 14 15 15 14 14 16 12 12 13 12 10 11 11 10 9 7 11 6 8
19 19 19 19 19 20 19 20 19 18 17 13 10 9 10 11 9 9 10 9 13 17 19 21 20 19 18 19 20 15 8 9 12 12 14 15 13 11 10 11 12 9 11 13 9 7 9 10 12 15 14 14 15 14 14 16 16 13 11 11 11 9 10 12 14 15 11 8 7 13 13 13 13 14 14 13 12 13 13 12 12 12 11 11 11 11 9 10
19 19 20 19 20 21 19 20 20 19 18 13 11 11 14 16 13 13 11 8 13 17 16 18 19 19 18 18 18 16 12 11 11 12 16 15 12 12 11 11 12 11 11 12 11 8 8 10 15 16 14 13 15 15 15 13 11 10 9 8 9 9 9 9 11 15 10 6 4 9 9 9 12 13 13 14 13 10 13 15 14 12 11 11 11 11 10 9
20 20 20 19 21 21 19 22 22 18 16 14 16 17 17 16 14 13 10 7 11 14 16 19 16 16 17 16 16 16 14 11 12 12 18 16 12 12 11 11 12 12 11 14 15 12 11 12 14 15 16 16 15 13 11 8 7 9 11 11 9 10 11 10 6 6 5 7 4 8 7 7 10 12 14 12 11 12 12 16 14 12 12 9 11 11 8 5
20 19 19 20 21 20 20 21 17 12 10 12 17 19 16 12 10 10 8 6 7 10 14 15 12 12 15 15 15 13 12 11 13 13 17 18 14 11 10 9 9 11 13 16 16 12 13 12 11 15 18 19 14 8 8 7 7 9 12 15 15 15 16 12 5 7 4 5 8 7 7 7 9 13 14 10 9 14 14 12 13 13 15 9 13 12 9 7
20 19 19 19 19 21 18 11 10 13 12 10 11 10 7 6 7 9 6 5 6 8 7 7 7 7 9 12 12 10 11 11 13 15 16 20 17 11 9 7 7 11 13 14 11 8 10 10 11 14 15 13 11 8 11 12 8 8 10 15 18 20 19 16 11 8 5 5 6 8 8 7 8 12 12 9 11 16 13 10 13 14 12 8 12 11 11 9
20 19 19 18 18 18 12 7 13 16 12 5 5 7 7 7 8 7 5 4 5 5 6 5 4 5 6 8 11 9 8 7 11 16 15 19 16 13 11 10 7 10 11 9 7 6 9 11 10 10 9 7 8 8 12 13 10 8 10 15 18 20 19 17 17 10 6 5 5 8 10 8 7 10 13 14 15 18 15 12 15 12 5 12 14 11 10 10
20 19 18 18 17 13 10 12 15 13 11 10 11 9 9 9 9 6 4 4 3 1 5 4 3 4 5 8 12 11 9 5 9 14 15 20 16 12 12 13 10 11 12 9 7 7 9 11 9 9 9 7 8 10 12 14 11 11 14 14 13 15 17 16 14 7 6 6 6 9 11 8 7 8 11 14 15 16 15 14 16 11 10 14 14 12 11 12
21 20 19 19 17 11 11 13 12 12 14 14 11 10 11 11 8 4 4 4 3 2 2 3 3 6 7 9 13 14 12 8 7 10 15 18 16 12 10 13 14 13 14 12 9 7 8 10 9 9 9 8 11 13 14 14 11 12 16 15 13 13 14 12 9 6 5 5 7 9 9 7 6 6 7 8 10 12 12 12 13 11 13 14 12 13 15 15
23 21 20 19 15 9 7 14 14 12 12 11 10 11 11 8 5 4 5 3 3 3 4 4 5 8 11 11 12 14 15 12 6 10 14 14 15 14 10 11 12 12 11 12 11 8 8 10 9 8 9 10 13 13 15 17 13 13 15 14 13 12 10 8 8 7 6 6 10 12 11 8 6 5 6 6 7 8 9 10 11 10 14 16 13 14 17 16
25 23 20 16 12 9 7 9 8 8 7 8 11 10 7 5 4 5 6 3 5 7 6 7 9 10 11 13 10 12 16 13 8 11 12 11 13 13 10 9 9 8 9 10 11 11 12 11 8 7 9 11 12 12 14 15 13 10 10 7 7 6 7 7 7 8 7 7 10 14 14 11 7 4 3 3 4 1 4 5 12 14 15 16 12 12 16 16
25 22 19 16 14 12 11 8 7 9 7 8 10 7 5 5 6 6 6 4 4 4 5 5 8 10 12 14 11 11 14 12 10 11 12 11 10 11 11 9 7 7 8 8 8 11 12 10 8 8 11 13 12 9 8 8 8 8 7 6 7 6 6 7 7 8 7 7 9 11 12 9 4 4 2 3 2 8 12 9 3 7 12 14 12 14 16 14
24 21 18 15 14 15 15 12 11 9 8 8 7 5 4 5 7 7 8 7 3 1 1 3 5 7 9 11 10 11 13 11 11 12 13 13 11 11 14 14 12 9 7 7 8 9 8 10 12 12 10 12 13 9 6 6 7 10 8 7 8 6 6 6 6 7 6 8 10 9 8 5 4 6 4 4 8 10 13 14 12 9 9 11 15 17 15 14
22 19 16 11 10 12 11 9 9 7 7 7 5 5 7 8 7 8 10 10 9 8 6 5 6 7 8 9 9 10 11 11 13 13 12 12 10 10 13 15 17 12 7 7 7 7 9 8 11 12 9 11 14 12 9 7 8 11 9 9 8 6 6 5 5 6 6 7 9 8 5 2 3 5 6 7 5 7 10 12 10 8 7 8 14 18 15 11
19 14 10 6 11 12 10 9 9 6 6 5 5 6 8 7 6 9 9 9 11 12 13 13 10 8 9 9 10 12 11 9 11 13 12 12 10 9 10 12 16 14 9 7 5 7 10 8 10 14 12 13 15 14 12 9 7 8 9 9 7 5 5 3 2 3 2 3 5 5 2 3 4 3 4 5 5 5 7 7 7 8 7 8 12 17 14 10
15 7 4 8 13 12 10 10 7 5 6 5 6 7 8 7 7 8 7 8 10 10 11 14 12 10 8 7 9 13 11 8 9 10 9 11 13 13 12 10 14 15 11 7 4 5 8 7 7 14 15 14 15 14 13 11 6 4 8 9 7 8 6 3 3 2 1 3 3 1 3 4 6 3 3 7 6 6 4 5 10 13 12 9 9 14 15 13
13 6 7 10 10 7 6 8 7 6 6 5 7 8 7 8 11 10 9 11 13 11 8 9 10 9 9 8 8 11 11 9 8 8 7 9 11 13 14 12 14 17 15 11 6 3 5 6 5 9 15 15 14 14 14 13 9 5 5 5 7 9 8 3 3 3 3 5 4 5 6 5 5 4 7 10 9 8 5 7 13 14 13 11 9 11 15 13
11 9 9 8 4 3 3 7 8 7 5 5 9 9 9 10 12 13 12 13 15 13 8 6 8 10 9 8 8 10 10 7 7 7 6 4 5 9 12 11 13 17 18 15 7 2 4 5 6 10 12 14 12 12 12 13 14 10 4 2 5 6 6 4 3 4 5 5 5 8 9 3 1 2 6 9 10 10 8 7 11 11 10 9 8 8 10 11
10 8 5 1 3 1 3 6 8 7 5 6 8 7 9 12 14 16 16 15 15 13 9 7 8 10 11 10 9 8 9 8 7 5 3 3 3 6 8 5 7 14 18 16 8 2 3 4 4 11 11 11 9 8 7 8 12 11 6 5 5 2 2 3 2 4 5 4 5 8 7 3 4 3 5 8 10 10 9 8 9 10 8 6 4 5 8 9
7 5 1 1 2 2 2 6 7 6 6 8 8 7 9 11 13 15 17 16 13 9 7 7 8 10 12 12 12 8 7 7 5 2 1 3 4 6 9 8 8 9 11 15 12 5 3 4 2 7 10 9 7 7 8 7 8 8 6 6 6 3 3 2 2 5 5 3 4 5 3 3 3 5 7 9 9 11 11 10 9 8 6 3 3 5 6 6
6 5 1 2 3 4 5 5 5 5 6 7 9 10 10 10 10 13 15 14 12 8 8 8 10 11 11 11 11 9 7 6 5 2 2 0 3 3 4 9 12 9 7 9 11 6 3 4 3 5 6 6 6 7 10 10 9 7 7 7 7 5 4 4 4 5 5 4 3 2 3 4 2 5 5 7 8 11 12 10 9 11 12 8 3 2 3 3
6 3 2 4 3 5 5 4 4 5 6 7 9 11 10 8 9 12 12 11 10 9 9 9 11 12 11 11 10 9 8 7 5 3 3 2 4 2 2 12 14 5 6 8 4 1 1 2 5 6 5 6 10 7 6 10 12 11 9 7 7 6 5 5 5 4 4 4 3 1 4 4 2 5 5 8 10 11 10 8 9 11 12 10 8 7 7 7
4 1 4 5 2 5 5 5 5 5 5 8 11 13 12 9 8 10 10 9 8 9 9 9 10 12 12 10 9 8 9 7 4 3 5 7 5 3 1 8 8 3 2 7 5 2 2 2 4 4 3 7 12 11 10 10 10 11 9 7 7 7 8 7 5 3 2 3 3 1 3 3 1 3 5 10 12 13 8 5 9 11 9 10 10 9 7 8
4 3 3 4 2 3 4 4 5 5 6 7 9 10 10 9 9 10 10 9 8 7 9 9 9 11 12 11 9 11 10 7 5 4 5 6 4 3 2 6 7 3 2 0 3 3 2 2 2 3 2 4 7 6 7 8 7 5 6 7 8 9 7 5 3 3 3 4 6 4 2 4 1 1 7 11 12 14 10 6 9 10 9 10 9 8 7 7
6 4 2 3 3 3 3 4 6 6 6 8 9 9 9 7 7 10 11 11 9 9 8 8 9 12 12 10 11 13 11 8 7 3 3 2 3 4 2 4 6 5 2 4 2 1 1 2 2 2 4 5 4 2 2 4 6 6 7 9 10 11 8 3 2 2 3 5 6 2 4 5 4 7 10 11 11 13 12 11 11 10 11 11 9 8 7 7
5 2 1 1 2 3 3 4 7 6 6 7 7 6 8 8 4 7 12 10 7 8 8 7 10 12 11 10 11 12 12 11 11 5 3 4 2 3 5 5 4 7 3 7 4 1 0 1 1 2 0 2 0 1 0 4 7 8 7 8 10 9 9 4 3 2 1 1 2 1 8 9 8 10 12 10 11 11 11 12 12 11 11 10 10 10 8 8
4 2 4 4 2 3 3 4 7 6 5 5 5 5 8 9 3 5 11 9 3 6 7 7 9 9 9 9 9 10 11 12 13 10 5 5 5 3 7 11 12 11 5 3 1 1 1 2 4 2 0 4 3 2 4 6 10 10 6 7 13 10 3 2 4 5 4 1 1 1 10 13 9 10 11 11 11 10 11 12 11 10 11 11 11 12 11 11
3 2 4 1 2 4 4 5 7 6 7 6 4 6 8 10 8 4 5 7 7 6 5 5 8 10 12 11 9 9 9 11 12 6 4 3 3 2 7 10 11 5 5 6 5 3 3 4 5 4 5 4 4 2 2 4 10 13 8 5 8 9 10 8 4 7 8 1 5 6 11 14 11 10 10 10 11 11 10 11 10 11 13 13 13 14 14 14
3 2 2 1 1 3 3 5 6 5 6 6 4 5 7 8 9 8 6 6 6 7 5 4 7 9 9 9 6 5 3 4 6 5 9 8 3 1 3 3 5 3 7 9 6 4 3 4 6 7 8 8 8 7 5 4 8 12 10 7 7 8 11 11 10 10 8 7 11 12 13 13 10 10 10 10 11 11 9 9 11 13 14 14 13 14 14 15
5 3 3 4 2 3 2 4 5 4 6 6 5 7 8 7 7 9 8 7 5 6 7 6 8 10 11 9 8 7 7 7 6 6 7 7 4 2 2 1 0 4 8 6 4 5 4 3 4 6 7 7 8 8 9 9 8 10 11 9 7 6 9 8 9 10 11 10 12 14 14 10 7 8 9 8 8 9 10 10 11 13 14 13 13 13 13 15
7 4 4 6 3 3 3 2 4 3 5 6 5 6 8 8 9 10 7 6 9 10 10 10 10 10 10 8 9 10 10 9 8 7 7 7 5 3 3 2 2 3 1 2 3 1 2 1 3 4 4 5 6 6 7 8 9 9 10 10 8 5 6 6 4 5 8 10 12 12 9 7 6 7 8 7 8 10 12 12 10 11 13 13 13 13 13 14
9 6 7 7 2 3 4 3 4 4 4 3 2 4 5 7 10 10 6 4 9 12 12 12 11 7 6 8 10 11 11 10 9 7 6 6 6 5 4 4 5 2 3 3 2 3 3 3 1 2 3 4 4 4 4 5 6 6 5 6 7 4 4 7 5 7 8 8 6 5 6 9 9 8 9 9 9 10 11 11 10 11 13 13 13 13 13 13
Wind_Direction
352 350 348 345 340 336 331 325 320 316 313 312 310 310 310 309 307 309 310 309 311 310 310 312 310 311 311 311 308 308 312 304 298 282 252 251 249 242 249 246 252 252 219 210 212 203 200 210 220 221 225 230 224 235 234 226 225 231 229 238 249 247 250 246 253 264 284 306 64 46 12 286 269 181 175 218 238 244 77 70 73 71 64 70 94 124 132 143
352 350 348 345 343 339 335 330 325 321 316 314 311 309 310 308 307 308 307 308 309 310 313 312 312 313 310 310 310 312 312 299 287 275 259 255 249 245 250 244 247 242 205 204 213 205 200 204 212 215 218 228 220 223 233 222 215 231 233 233 240 244 253 250 263 285 15 21 26 37 348 242 267 350 126 192 237 229 110 87 88 85 81 84 97 121 133 144
350 349 347 345 344 341 338 335 331 328 322 318 313 308 306 307 308 306 305 306 307 311 311 311 314 311 309 311 313 318 311 296 283 267 263 258 237 235 241 240 241 227 201 202 210 207 208 209 208 212 215 225 224 217 223 220 212 224 235 239 240 242 256 261 278 305 356 11 349 346 313 240 264 277 201 214 238 228 143 111 108 110 119 114 109 118 136 145
349 347 346 344 343 341 339 337 335 332 327 321 318 311 308 308 307 306 305 306 306 309 309 311 313 311 313 313 313 321 308 292 284 232 244 209 207 225 235 237 232 211 200 206 218 215 216 218 211 212 218 225 228 222 222 223 215 214 227 242 247 245 251 255 278 307 287 293 291 314 324 258 248 247 289 252 230 340 33 139 138 141 136 132 128 131 148 154
348 346 345 343 341 340 339 338 336 335 332 326 320 315 311 308 306 305 304 306 308 308 311 310 312 315 313 311 317 318 301 287 84 106 109 132 175 213 225 226 219 201 201 212 230 230 223 224 219 214 221 230 230 226 224 225 224 224 229 238 250 256 258 262 298 322 296 310 277 282 280 276 321 286 280 251 207 122 227 178 143 152 142 141 141 142 161 174
348 346 344 342 341 339 338 337 336 335 335 331 324 318 312 308 304 304 304 306 307 307 312 312 313 316 313 315 314 299 280 293 18 121 129 123 145 187 203 208 206 197 203 216 234 239 226 223 224 218 220 231 236 234 227 221 223 234 241 240 246 255 263 278 306 331 328 314 284 265 263 289 350 279 257 254 229 156 194 169 129 144 134 138 146 148 167 185
347 346 344 342 340 338 338 336 336 335 334 332 327 319 312 309 303 300 302 302 305 307 310 312 316 315 320 324 303 263 243 275 296 141 135 123 129 159 183 192 195 193 205 218 228 236 226 221 224 222 222 228 239 242 238 230 224 232 244 244 247 251 255 267 279 306 66 258 261 265 266 284 304 272 264 258 244 109 133 130 120 131 126 138 149 152 173 188
346 346 343 341 338 337 337 335 336 334 332 331 328 322 313 309 306 300 295 295 299 303 308 311 315 319 329 330 306 257 249 257 199 140 144 142 140 154 165 179 190 192 206 218 226 235 226 223 225 226 228 230 238 243 245 242 229 231 242 247 251 253 253 254 254 256 240 239 247 255 266 274 266 265 264 257 182 114 124 128 125 139 140 150 162 167 182 190
346 344 342 340 338 336 336 335 334 332 330 329 326 324 314 308 307 303 297 296 298 301 307 309 312 324 326 315 296 284 282 163 127 141 170 161 163 165 165 177 189 193 208 220 232 239 230 225 227 231 239 240 241 243 245 246 233 229 240 245 249 253 258 260 251 250 248 249 247 239 250 255 256 262 260 266 213 144 146 137 139 159 159 158 167 175 185 189
344 343 340 340 338 336 336 334 332 329 327 325 323 322 316 310 304 300 298 295 297 297 302 305 310 322 310 289 275 278 311 103 134 157 169 168 165 167 179 186 185 194 210 221 231 236 230 229 232 236 247 253 253 250 245 248 251 243 244 243 243 250 257 259 246 242 248 246 245 241 244 243 240 251 243 246 250 203 153 142 153 167 160 155 160 168 182 187
342 341 339 339 337 336 335 333 330 327 325 322 321 321 316 310 303 300 298 293 294 295 299 301 309 316 296 284 272 266 299 330 178 155 164 167 165 173 195 196 186 199 215 223 230 232 233 234 236 237 239 246 254 259 256 256 260 254 254 252 245 251 253 251 239 226 240 238 234 239 245 243 232 238 230 225 246 216 154 162 168 168 154 149 155 153 166 198
341 340 338 337 335 334 332 330 329 325 323 320 318 319 316 311 305 300 297 297 296 297 301 297 312 310 287 281 256 249 257 275 273 219 181 174 180 187 202 203 193 204 220 228 230 228 235 240 244 252 247 239 245 256 265 264 261 254 258 261 252 253 250 248 241 220 232 232 221 228 239 241 231 235 228 226 241 196 171 204 189 175 152 146 151 144 162 198
340 338 336 335 334 332 331 328 327 324 321 319 316 315 316 314 306 297 295 294 290 289 288 284 296 288 281 276 252 252 257 259 254 231 196 190 202 203 210 214 205 214 228 239 243 232 236 248 256 263 261 257 254 261 275 272 265 255 253 257 253 255 248 244 239 222 229 232 217 218 231 235 228 236 229 226 238 200 182 215 202 190 166 153 157 159 174 180
339 337 336 334 333 331 329 326 325 323 320 317 315 312 314 316 307 295 289 286 286 289 284 281 281 274 263 259 266 268 270 262 243 222 213 207 209 210 213 218 218 226 233 242 255 253 240 247 258 267 264 266 271 269 264 260 257 250 243 242 245 252 249 242 231 217 223 227 216 215 231 234 224 228 221 229 236 193 187 212 199 203 180 161 162 165 173 165
339 338 335 333 332 329 327 325 323 321 319 316 316 315 314 315 306 292 285 281 284 285 287 287 252 251 267 264 273 277 260 249 239 226 219 211 213 215 208 213 226 231 234 241 251 260 248 241 246 253 255 255 262 266 263 256 245 239 238 236 233 240 250 247 231 213 215 219 210 211 232 236 233 230 208 216 231 189 192 215 206 204 166 160 170 164 168 153
338 336 334 333 331 328 326 324 322 320 318 318 320 319 317 316 307 295 294 286 282 267 256 263 225 220 269 284 291 264 226 226 232 227 220 214 216 218 206 208 224 227 233 238 239 251 250 240 237 241 248 245 244 250 255 254 239 226 229 237 239 239 240 246 242 217 206 214 208 206 230 233 233 247 216 202 216 201 194 214 218 202 157 156 167 149 143 138
337 335 333 332 329 328 326 323 322 320 318 323 325 321 319 318 308 295 308 304 288 248 228 257 251 226 251 284 303 264 224 220 226 222 215 214 216 221 212 203 217 221 224 228 228 236 232 227 232 233 240 240 234 232 237 241 234 222 221 233 241 244 242 236 246 221 197 206 212 202 219 239 232 244 235 205 205 205 191 210 224 201 161 150 147 132 117 128
336 334 332 331 329 327 325 323 322 320 320 326 327 321 317 314 300 283 287 275 249 235 233 252 274 261 239 254 264 260 239 211 209 213 205 204 213 224 218 201 214 215 214 221 217 221 220 215 225 229 227 229 231 227 226 232 236 230 219 226 232 242 249 238 246 228 190 196 216 206 204 230 243 244 253 229 202 196 185 207 232 202 172 157 151 152 137 188
334 333 331 329 327 325 324 323 321 321 323 326 330 324 312 301 278 256 244 223 199 222 248 214 198 237 288 267 245 253 260 167 180 211 200 194 208 223 218 206 217 211 212 215 200 205 211 208 218 227 223 218 224 227 228 233 239 240 230 231 228 231 243 238 250 235 186 187 209 216 209 214 236 244 255 249 186 181 183 201 239 210 181 184 164 146 155 207
333 330 329 327 325 324 322 320 320 321 321 326 334 323 295 276 270 231 214 215 216 236 272 250 203 235 277 283 253 232 190 149 189 216 200 192 203 219 213 205 215 211 215 218 197 197 206 214 217 221 226 223 223 229 239 241 243 252 259 260 243 233 242 233 243 235 189 186 203 212 223 215 222 240 244 224 145 176 209 204 234 220 192 212 165 125 164 222
331 329 328 326 323 322 320 319 319 317 316 321 323 304 274 298 323 341 298 250 233 234 252 258 243 248 258 264 265 244 192 180 206 220 205 193 200 214 201 200 214 206 215 224 208 195 205 221 225 221 227 231 228 225 236 250 252 259 273 279 255 228 237 236 236 232 189 181 204 204 222 223 216 231 240 222 176 186 215 220 233 224 207 209 149 122 183 229
330 329 327 325 322 320 321 319 314 310 311 307 289 266 264 289 321 337 317 290 269 255 250 253 250 254 254 254 263 263 237 202 207 216 198 185 199 211 186 191 216 209 209 221 211 196 209 226 231 228 227 233 240 226 224 246 256 260 263 275 273 233 230 240 234 232 200 172 215 210 211 223 223 226 233 234 213 187 192 212 231 227 215 200 159 148 193 216
329 328 326 325 321 320 321 316 311 305 296 275 250 250 260 278 308 323 310 290 286 277 260 250 243 242 244 244 245 243 242 227 221 214 186 181 205 213 195 194 216 218 208 214 213 203 212 223 226 232 232 229 241 233 217 227 243 254 256 257 272 257 235 235 230 228 206 146 230 240 220 219 227 232 231 230 236 218 186 196 221 231 222 201 167 153 177 203
328 327 325 324 320 321 323 316 309 296 275 249 243 253 261 278 303 318 312 284 281 279 261 248 240 237 234 232 226 221 228 229 236 219 178 181 210 212 211 207 213 225 215 212 213 213 227 227 216 223 231 221 229 244 230 226 236 238 250 249 257 267 251 238 219 195 156 126 175 259 260 235 222 227 231 216 224 245 215 192 204 229 232 192 137 129 145 163
327 326 323 324 321 323 326 317 306 293 266 238 247 258 258 267 299 324 318 282 270 270 253 238 228 231 224 216 211 210 219 218 236 231 176 182 213 208 212 217 214 226 220 215 214 217 233 235 217 218 227 218 212 237 235 228 250 237 236 244 254 268 265 253 200 138 152 177 172 207 248 252 233 228 232 205 198 241 236 195 192 224 236 188 128 127 139 138
326 324 322 323 321 326 329 316 312 317 299 258 258 284 283 280 323 333 306 269 274 266 232 194 185 200 205 203 194 196 222 218 227 233 183 181 212 219 216 218 214 229 226 218 216 225 237 240 238 227 220 215 207 220 224 218 240 248 226 228 243 259 267 271 254 201 205 233 183 191 224 246 237 228 232 215 209 231 227 199 207 225 227 164 129 132 138 132
324 322 322 320 320 330 329 306 318 315 298 305 347 340 331 330 336 325 286 262 276 244 180 155 165 175 183 190 176 180 222 207 205 227 197 176 203 226 227 221 209 228 240 232 212 218 238 235 241 238 209 205 224 227 222 215 224 248 236 218 224 243 255 267 269 242 193 221 224 209 218 239 244 223 218 214 219 227 214 205 221 222 160 118 125 139 140 121
321 321 320 316 316 315 288 288 308 294 280 329 348 320 318 334 324 299 267 262 298 266 159 148 118 159 190 178 177 199 232 205 187 215 197 176 193 216 226 233 230 225 229 238 225 205 226 220 211 231 222 209 228 231 222 214 216 241 248 234 217 229 243 252 267 251 187 215 240 220 214 227 249 233 214 212 220 223 211 210 221 201 130 117 133 140 123 100
324 322 317 316 318 305 265 261 277 281 288 310 323 315 318 319 303 269 248 259 304 334 182 167 137 179 202 182 188 212 231 231 201 193 182 177 197 216 227 237 246 244 226 230 245 222 220 217 200 216 225 223 228 229 226 215 217 238 246 254 244 226 230 243 258 242 198 223 241 230 220 220 249 243 215 216 222 221 212 212 222 196 147 139 147 139 121 111
326 322 319 318 316 314 274 243 254 283 293 297 314 317 309 297 272 236 233 233 264 246 160 150 182 194 198 194 200 211 220 233 212 174 176 178 196 216 235 234 241 258 237 222 240 244 232 220 212 216 215 225 229 227 228 216 212 233 236 250 254 226 215 232 250 245 223 225 232 230 221 219 252 243 202 209 211 221 227 207 210 201 156 146 154 147 130 122
325 322 321 309 290 299 294 248 262 299 290 304 322 310 287 262 236 234 231 238 284 253 183 174 200 193 195 205 207 206 214 226 200 173 181 184 191 204 226 232 228 248 245 225 225 235 237 218 204 230 229 229 233 237 238 214 200 226 233 244 258 223 209 220 225 235 237 228 228 226 216 214 237 234 222 247 196 176 316 226 205 198 162 147 152 138 122 117
322 320 313 293 272 265 260 265 320 324 302 317 318 286 244 229 228 236 240 256 285 237 195 217 216 194 199 212 213 204 211 219 201 188 191 190 194 199 208 218 209 217 233 227 212 219 236 226 200 221 237 234 232 238 239 206 196 231 228 223 241 219 204 216 211 216 234 238 234 230 219 215 214 197 240 319 69 57 31 31 114 158 140 136 130 108 105 117
321 317 304 286 270 253 246 269 306 309 306 307 291 255 228 232 228 228 238 246 273 6 45 311 257 217 211 217 220 210 211 216 204 199 202 197 200 203 206 216 212 209 225 225 215 209 220 230 216 210 220 227 234 236 213 191 209 230 225 214 228 223 207 218 217 214 228 232 228 224 222 216 163 157 151 72 60 56 51 52 63 83 96 110 114 105 106 118
320 309 295 276 255 251 250 265 280 292 303 283 253 228 226 236 238 240 242 241 259 277 268 264 261 253 244 233 231 218 212 219 208 201 205 202 207 208 204 215 218 216 228 230 229 222 217 225 216 209 205 202 220 238 229 208 204 212 228 232 223 223 225 226 225 228 235 232 220 208 207 208 145 137 115 103 95 74 70 70 78 95 113 121 115 112 113 117
317 301 287 249 231 240 241 245 257 279 286 256 229 224 224 229 236 242 248 247 258 270 269 265 255 245 249 240 235 227 215 216 212 208 211 206 211 217 204 210 218 218 223 221 223 230 232 234 205 204 210 194 202 229 240 237 217 196 215 233 227 217 222 227 234 240 256 263 233 207 161 82 109 107 96 141 169 119 86 80 81 81 108 141 126 119 126 139
312 286 235 226 225 218 217 228 234 246 258 241 224 227 225 233 241 244 259 265 261 268 279 277 258 237 240 236 237 235 218 209 218 219 222 217 215 216 209 207 214 217 221 216 211 219 231 244 206 196 206 202 199 216 231 236 238 210 210 220 221 207 201 216 218 193 181 254 244 138 86 107 134 148 174 174 145 98 80 72 71 62 69 90 99 111 129 148
310 274 231 236 219 183 206 228 218 223 246 242 230 236 238 240 247 255 270 278 277 281 290 289 279 261 244 229 231 233 214 199 214 223 229 231 225 217 213 209 208 216 223 224 227 239 241 264 265 218 208 201 200 210 220 225 228 232 222 227 231 208 193 203 222 201 205 235 223 162 165 177 165 176 185 169 131 105 101 69 65 61 63 63 55 87 122 141
300 283 263 248 179 126 261 236 214 221 233 237 238 247 255 254 256 260 267 277 283 283 275 270 284 283 266 250 237 230 222 202 196 214 234 247 239 231 226 216 207 212 220 226 227 235 258 267 293 272 229 194 194 212 216 217 223 230 222 228 255 228 199 197 210 224 220 229 230 189 176 174 296 209 169 153 133 123 125 91 70 63 60 54 39 56 96 114
277 274 269 221 126 70 280 214 204 220 225 235 240 240 250 257 265 271 276 282 280 273 267 264 274 279 276 274 266 241 236 231 205 202 252 274 267 290 306 301 236 219 216 222 219 170 248 243 285 287 246 188 186 217 221 213 218 232 241 233 242 240 226 237 221 234 229 220 233 208 169 97 355 358 84 111 121 118 109 96 81 66 49 41 34 38 73 99
268 264 248 123 143 112 157 188 199 220 223 234 243 245 252 253 257 264 268 274 280 277 275 277 274 272 271 274 280 273 258 255 241 211 240 252 272 318 338 336 300 270 236 223 210 177 205 217 257 271 236 202 195 203 214 229 223 221 229 235 236 200 181 219 239 244 242 226 229 223 160 96 1 6 62 88 102 105 101 103 103 94 84 58 9 8 40 75
286 278 185 149 176 149 166 198 207 227 235 241 248 251 258 264 271 272 263 259 268 265 255 263 269 274 280 281 276 269 271 266 244 226 88 40 286 322 335 311 306 321 314 247 212 185 188 186 207 248 231 230 239 203 201 226 239 233 222 222 230 222 199 206 224 233 240 252 257 232 128 104 18 354 55 90 94 91 93 104 112 112 120 130 125 47 58 75
280 291 99 122 173 198 217 246 240 240 249 254 261 263 265 265 271 280 278 274 280 273 259 261 268 273 281 285 281 270 278 282 243 193 111 194 244 177 230 281 281 291 335 309 266 222 336 174 206 241 251 264 277 284 256 239 238 239 238 232 227 228 235 236 234 222 223 266 303 104 119 98 11 347 46 92 103 94 84 87 96 98 104 111 120 137 147 147
260 317 100 114 159 219 242 281 269 260 267 263 271 282 289 298 294 286 282 277 275 272 267 262 262 264 259 263 283 280 273 284 271 191 177 214 226 111 171 278 275 233 289 319 323 316 283 207 207 239 277 286 284 288 287 273 251 233 232 246 248 238 233 234 250 264 237 260 284 213 133 102 5 343 70 93 101 101 95 81 89 95 96 94 100 113 122 128
302 315 122 111 54 267 269 304 298 289 286 275 276 283 291 304 303 293 285 277 275 280 278 265 259 267 258 244 255 262 258 274 276 215 188 213 202 129 19 353 354 337 187 311 343 338 303 275 240 231 223 259 269 263 273 290 288 260 239 238 246 250 249 246 252 268 249 232 248 257 120 111 172 165 112 109 107 108 115 114 102 100 97 93 89 88 92 103
306 288 183 115 56 342 312 328 316 306 305 299 290 287 287 280 272 281 283 281 292 304 296 282 287 294 288 270 260 257 254 263 272 245 134 152 188 196 199 38 357 322 64 66 5 350 320 307 321 288 224 215 240 227 247 308 310 294 268 249 244 244 254 312 349 275 260 240 247 247 111 124 146 134 117 111 109 109 112 111 103 93 90 95 97 90 85 88
301 298 331 42 62 9 344 342 329 325 330 311 294 296 291 273 273 314 304 283 275 292 292 288 294 298 300 296 281 268 259 252 259 261 166 140 123 233 207 155 226 262 57 46 5 106 190 283 58 7 256 139 181 250 327 341 319 298 288 305 305 267 238 256 291 281 250 191 303 120 137 139 133 127 120 113 109 105 103 100 94 91 95 100 101 96 90 85
294 349 10 351 345 2 359 359 347 342 355 333 313 328 308 291 328 349 311 301 287 285 284 278 281 281 282 287 279 273 274 262 253 254 234 178 137 207 219 185 199 226 183 117 308 119 226 221 138 130 182 111 98 336 1 353 323 312 319 341 335 329 315 280 273 282 273 198 360 76 132 128 124 127 122 116 110 105 102 100 97 99 101 99 93 90 90 84
311 29 58 2 326 4 357 357 358 353 12 19 344 346 348 345 3 2 306 323 338 325 307 285 281 273 267 271 267 261 271 269 262 276 352 15 113 172 234 191 174 198 202 205 222 204 241 236 165 178 240 220 204 252 338 338 317 319 339 355 333 353 21 15 353 324 310 238 143 138 126 121 123 120 107 101 101 100 102 106 108 105 98 93 91 88 87 84
351 33 69 246 291 37 7 350 359 359 15 18 346 353 11 10 2 348 349 10 351 340 353 323 299 298 295 308 317 297 298 303 302 359 20 2 25 66 272 190 140 191 226 224 219 193 221 241 209 215 236 233 228 233 242 265 298 309 326 358 7 38 47 27 29 42 41 94 131 133 117 109 112 108 98 96 99 100 105 112 113 105 96 90 88 86 85 81
358 17 7 303 326 40 15 351 358 3 20 14 360 4 3 8 5 342 348 22 10 350 2 351 340 337 333 354 25 19 13 10 356 4 2 346 360 7 292 286 71 245 230 223 208 188 199 212 215 236 246 233 223 222 228 233 248 283 302 323 349 31 58 40 36 63 79 95 110 113 106 99 101 106 103 106 113 117 115 111 105 97 93 92 86 83 84 81
346 353 331 299 329 5 322 360 15 2 26 25 16 10 357 359 360 335 328 12 12 5 1 355 2 354 330 350 27 16 358 350 340 338 335 333 337 308 281 269 280 280 283 358 352 264 222 209 198 228 248 249 237 219 215 218 221 247 272 281 293 330 61 74 56 73 102 113 111 108 112 123 134 134 125 118 122 123 114 110 105 92 86 87 83 77 75 75
350 345 318 296 327 8 325 12 28 2 21 40 42 34 15 359 354 342 333 357 1 1 354 350 5 4 336 360 8 349 336 328 319 314 304 298 294 288 290 276 267 281 91 87 11 345 300 271 246 236 234 235 240 224 208 207 209 223 259 285 277 251 128 108 94 99 122 140 135 121 128 134 138 144 145 140 135 128 116 107 100 89 81 79 80 77 71 68